Flag Weather past 2 weeks in Montfoort, Netherlands

Now
44 °F

Fog.


Feels Like: 42 °F
Forecast: 39 / 48 °F
Wind: 3 mph from Southeast

Location: De Bilt

Current Time: Nov 27, 2014 at 5:34:51 AM

Latest Report: Nov 27, 2014 at 4:00 AM


Visibility: 5 mi

Pressure: 29.80 "Hg

Humidity: 90%

Dew point: 41 °F

Location of MontfoortLocation

Historic Weather in Montfoort — Graph

°F

Montfoort temperature yesterday

Maximum temperature yesterday: 43 °F (at 4:00 PM)
Minimum temperature yesterday: 37 °F (at 4:00 AM)
Average temperature yesterday: 41 °F

Past Weeks' High & Low Weather Summary

 TemperatureHumidityPressure
High56 °F (Nov 13, 2:00 PM)99% (Nov 12, 10:00 PM)30.35 "Hg (Nov 12, 10:00 PM)
Low30 °F (Nov 25, 7:00 AM)64% (Nov 24, 1:00 PM)29.47 "Hg (Nov 16, 5:00 PM)
Average46 °F89%29.93 "Hg
* Reported Nov 12 4:00 AM — Nov 27 4:00 AM, Montfoort, Weather by CustomWeather, © 2014

Note: Actual official high and low records may vary slightly from our data, if they occured in-between our weather recording intervals... More about our weather records

Advertising

Montfoort weather history for previous 24 hours

 ConditionsComfort  
Time TempWeatherWind HumidityBarometerVisibility
4:00 AM
Nov 27
44 °FFog.3 mph90%29.80 "Hg5 mi
3:00 AM44 °FFog.5 mph90%29.81 "Hg5 mi
2:00 AM43 °FFog.5 mph91%29.82 "Hg5 mi
1:00 AM43 °FFog.3 mph92%29.83 "Hg4 mi
12:00 AM42 °FLow clouds.3 mph95%29.85 "Hg1 mi
11:00 PM
Nov 26
42 °FLow clouds.5 mph94%29.86 "Hg2 mi
10:00 PM42 °FDrizzle. Low clouds.3 mph94%29.87 "Hg2 mi
9:00 PM42 °FLow clouds.5 mph91%29.88 "Hg2 mi
8:00 PM43 °FOvercast.5 mph83%29.88 "Hg7 mi
7:00 PM43 °FDrizzle. Overcast.3 mph82%29.89 "Hg7 mi
6:00 PM43 °FLight freezing rain. Overcast.5 mph81%29.90 "Hg7 mi
5:00 PM43 °FOvercast.5 mph78%29.90 "Hg8 mi
4:00 PM43 °FOvercast.5 mph77%29.91 "Hg7 mi
3:00 PM43 °FOvercast.6 mph79%29.92 "Hg7 mi
2:00 PM43 °FOvercast.6 mph79%29.94 "Hg7 mi
1:00 PM42 °FScattered clouds.7 mph78%29.96 "Hg7 mi
12:00 PM42 °FPassing clouds.7 mph77%29.98 "Hg7 mi
11:00 AM41 °FPartly sunny.7 mph79%29.99 "Hg7 mi
10:00 AM39 °FFog.5 mph85%30.00 "Hg6 mi
9:00 AM39 °FFog.6 mph85%30.01 "Hg5 mi
7:00 AM38 °FFog.6 mph89%30.02 "Hg5 mi
Weather by CustomWeather, © 2014

See weather overviewHow to use our weather pages